map of NDR home
NDR - Airport
Location
City:  Nador, Nador, Morocco
Name:Nador International Airport
Old (Alt.):Arwi Airport, Al Aroui Airport
ICAO:GMMW
IATA:NDR

Details
Type:Airport (Aerodrome, Airfield)
Use:Public/Civil, International (customs port of entry)
Latitude:3459'20"N (34.988781)
Longitude:301'42"W (-3.028205)
Datum:WGS 1984
Elevation:574 ft (175 m)
Variation:0.42W (WMM2015 magnetic declination)
0.11 annual change
Runways:1
Longest:9842 × 148 ft (3000 × 45 m), paved

Time
Time Zone:UTC+0 (DST+1)
Local Time:

Weather
METAR:GMMW 220700Z 28005KT 250V320 6000 FEW020 BKN030 20/16 Q1017 NOSIG
TAF:GMMW 220500Z 2206/2312 VRB02KT 6000 FEW020
BECMG 2207/2209 04012KT
BECMG 2218/2220 SCT016

Related Locations
Nearby:
Farthest:NZOX: 12318 mi / 19824 km
Okiwi Station, AUK, NZ

Find:

   beyond  
but within

Other Information
Maps:
NOTAMs:
Links:
Sources:

  
  • flag of Morocco
  

Sectional Chart

Flight Planning
at skyvector.com

Satellite Image

Google Maps Satellite view

 

Copyright © 2004-2018 Karl L. Swartz. All rights reserved.
The Great Circle Mapper name and logo are trademarks of the Great Circle Mapper.
All other trademarks mentioned herein belong to their respective owners.
Please see credits for attibutions and further copyright information.

  Follow gcmap on Facebook Follow gcmap on Twitter Follow gcmap on Google+ GCmap on LinkedIn

hCard Microformat

Geo Microformat